Flag for Canada Weather past 2 weeks in Corner Brook, Newfoundland and Labrador, Canada

36 °F

Passing clouds.

Feels Like: 24 °F
Forecast: 35 / 44 °F
Wind: 24 mph from Southwest

Location: Deer Lake

Current Time: Nov 26, 2015 at 8:30:25 PM

Latest Report: Nov 26, 2015 at 7:30 PM

Visibility: 15 mi

Pressure: 30.62 "Hg

Humidity: 60%

Dew point: 23 °F

Location of Corner BrookLocation

Historic Weather in Corner Brook — Graph


Corner Brook temperature yesterday

Maximum temperature yesterday: 34 °F (at 1:30 PM)
Minimum temperature yesterday: 27 °F (at 5:30 AM)
Average temperature yesterday: 28 °F

Past Weeks' High & Low Weather Summary

High61 °F (Nov 23, 1:30 PM)100% (Nov 14, 5:30 AM)30.89 "Hg (Nov 14, 5:30 AM)
Low12 °F (Nov 12, 5:30 AM)48% (Nov 12, 2:30 PM)29.40 "Hg (Nov 24, 4:30 AM)
Average33 °F82%30.12 "Hg
* Reported Nov 11 7:30 PM — Nov 26 7:30 PM, Corner Brook, Weather by CustomWeather, © 2015

Note: Actual official high and low records may vary slightly from our data, if they occured in-between our weather recording intervals... More about our weather records


Corner Brook weather history for previous 24 hours

Time TempWeatherWind HumidityBarometerVisibility
7:30 PM
Thu, Nov 26
36 °FPassing clouds.24 mph60%30.62 "Hg15 mi
6:30 PM36 °FPassing clouds.16 mph60%30.64 "Hg15 mi
5:30 PM36 °FPartly cloudy.16 mph60%30.66 "Hg15 mi
4:30 PM36 °FPassing clouds.20 mph60%30.69 "Hg15 mi
3:30 PM37 °FBroken clouds.15 mph60%30.72 "Hg15 mi
2:30 PM37 °FBroken clouds.17 mph60%30.75 "Hg15 mi
1:30 PM37 °FPartly sunny.18 mph65%30.78 "Hg15 mi
12:30 PM36 °FScattered clouds.15 mph70%30.80 "Hg15 mi
11:30 AM36 °FScattered clouds.12 mph65%30.85 "Hg15 mi
10:30 AM34 °FBroken clouds.13 mph70%30.88 "Hg15 mi
9:30 AM32 °FScattered showers. Broken clouds.8 mph75%30.89 "Hg15 mi
9:19 AM30 °FLight mixture of precip. Broken clouds.9 mph75%30.89 "Hg15 mi
8:30 AM30 °FSnow flurries. Partly sunny.9 mph80%30.89 "Hg7 mi
7:30 AM28 °FSnow flurries. Partly sunny.9 mph86%30.89 "Hg5 mi
6:30 AM28 °FSnow flurries. Passing clouds.10 mph86%30.87 "Hg15 mi
5:30 AM28 °FSnow flurries. Passing clouds.9 mph86%30.86 "Hg15 mi
4:30 AM27 °FSnow flurries. Partly cloudy.12 mph93%30.84 "Hg12 mi
3:30 AM27 °FSnow flurries. Passing clouds.10 mph86%30.83 "Hg15 mi
2:30 AM27 °FSnow flurries. Passing clouds.12 mph86%30.82 "Hg15 mi
1:30 AM27 °FSnow flurries. Passing clouds.6 mph69%30.79 "Hg15 mi
12:30 AM27 °FPassing clouds.8 mph64%30.79 "Hg15 mi
11:30 PM
Wed, Nov 25
27 °FSnow flurries. Passing clouds.9 mph64%30.78 "Hg15 mi
10:30 PM27 °FSnow flurries. Passing clouds.10 mph69%30.75 "Hg15 mi
9:30 PM27 °FSnow flurries. Passing clouds.7 mph80%30.73 "Hg15 mi
8:30 PM27 °FSnow flurries. Passing clouds.5 mph80%30.70 "Hg15 mi
Weather by CustomWeather, © 2015

See weather overviewHow to use our weather pages